Date String (YYYY-MM-DD hh:mm:ss) UTC,Instrument flags,absolute air pressure of the measurement (hPa),sample flow rate (lpm),inlet stack bypass flow (lpm),air temperature of the measurement (°C),ambient temperature measured by the external sensor (°C),aerosol sample conditioner tube jacket temperature (°C),OPC LED temperature (°C),internal box temperature (°C),relative humidity of the measurement (%),span deviation,mass concentration of particles derived from Lorenz-Mie calculation of OPC scattering (μg/m³),mass concentration of particles derived from Lorenz-Mie calculation of OPC scattering (μg/m³),mass concentration of particles derived from Lorenz-Mie calculation of OPC scattering (μg/m³)
DateTimeUTC,F1_M11,P_M11,Q1_M11,Q2_M11,T1_M11,T2_M11,T3_M11,T4_M11,T5_M11,U1_M11,ZSPAN_M11,X0_M11,X2_M11,X1_M11
2024-06-14 20:00:00,SystemResetWarning,0830.9,5.00,000.00,029.2,027.5,000.0,037.7,030.7,040.6,0001.6,0044.03,0013.48,0010.08
2024-06-14 20:01:00,SystemResetWarning,0830.9,5.01,000.00,029.2,027.8,000.0,037.6,030.9,039.6,0001.3,0044.25,0013.32,0009.98
2024-06-14 20:02:00,SystemResetWarning,0830.9,5.01,000.00,029.2,028.1,000.0,037.6,031.0,037.4,0001.2,0044.80,0013.04,0009.83
2024-06-14 20:03:00,SystemResetWarning,0830.9,5.01,000.00,029.3,028.3,000.0,037.6,031.1,036.9,0001.2,0044.20,0012.81,0009.65
2024-06-14 20:04:00,SystemResetWarning,0830.9,5.00,000.00,029.4,028.5,000.0,037.6,031.2,036.7,0001.3,0042.03,0012.64,0009.49
2024-06-14 20:05:00,SystemResetWarning,0830.9,4.99,000.00,029.4,028.7,000.0,037.7,031.3,037.1,0001.5,0040.69,0012.40,0009.32
2024-06-14 20:06:00,SystemResetWarning,0830.9,5.00,000.00,029.5,028.8,000.0,037.7,031.3,036.6,0001.6,0038.19,0012.11,0009.11
2024-06-14 20:07:00,SystemResetWarning,0830.9,5.00,000.00,029.5,028.9,000.0,037.7,031.4,037.1,0001.3,0035.01,0011.90,0008.91
2024-06-14 20:08:00,SystemResetWarning,0830.8,5.00,000.00,029.6,029.0,000.0,037.8,031.4,037.5,0001.1,0033.08,0011.63,0008.73
2024-06-14 20:09:00,SystemResetWarning,0830.7,5.00,000.00,029.6,029.1,000.0,037.8,031.5,037.3,0000.9,0032.33,0011.40,0008.56
2024-06-14 20:10:00,SystemResetWarning,0830.7,5.00,000.00,029.7,029.2,000.0,037.8,031.6,036.6,0001.2,0033.58,0011.20,0008.38
2024-06-14 20:11:00,SystemResetWarning,0830.6,5.00,000.00,029.8,029.3,000.0,037.8,031.6,033.6,0000.8,0032.77,0010.88,0008.20
2024-06-14 20:12:00,SystemResetWarning,0830.6,5.00,000.00,029.8,029.4,000.0,037.9,031.7,033.3,0000.6,0030.13,0010.56,0008.00
2024-06-14 20:13:00,SystemResetWarning,0830.4,5.00,000.00,029.8,028.9,000.0,037.9,031.4,031.6,0000.6,0027.67,0010.26,0007.81
2024-06-14 20:14:00,SystemResetWarning,0830.3,4.99,000.00,029.5,026.8,000.0,038.0,030.5,031.3,0000.6,0025.57,0009.99,0007.63
2024-06-14 20:15:00,SystemResetWarning,0830.2,5.02,000.00,029.2,026.2,000.0,038.0,030.0,031.6,0000.4,0025.14,0009.71,0007.47
2024-06-14 20:16:00,SystemResetWarning,0830.2,5.00,000.00,029.1,026.5,000.0,037.9,030.2,031.8,0000.1,0024.18,0009.41,0007.29
2024-06-14 20:17:00,SystemResetWarning,0830.3,5.00,000.00,029.1,026.9,000.0,037.8,030.4,030.7,-000.0,0023.66,0009.16,0007.12
2024-06-14 20:18:00,SystemResetWarning,0830.2,4.99,000.00,029.1,027.3,000.0,037.7,030.6,029.6,0000.6,0022.97,0008.88,0006.95
2024-06-14 20:19:00,SystemResetWarning,0830.2,5.00,000.00,029.1,027.6,000.0,037.7,030.8,028.8,0000.6,0021.33,0008.60,0006.76
2024-06-14 20:20:00,SystemResetWarning,0830.1,5.00,000.00,029.2,027.9,000.0,037.7,030.9,029.4,0000.0,0019.99,0008.33,0006.56
2024-06-14 20:21:00,SystemResetWarning,0830.1,5.01,000.00,029.2,028.2,000.0,037.7,031.0,029.3,0000.0,0017.55,0008.02,0006.37
2024-06-14 20:22:00,SystemResetWarning,0830.1,4.99,000.00,029.3,028.4,000.0,037.7,031.1,027.9,0000.0,0015.93,0007.71,0006.18
2024-06-14 20:23:00,SystemResetWarning,0830.1,4.99,000.00,029.3,028.6,000.0,037.7,031.1,028.0,0000.0,0015.35,0007.47,0006.04
2024-06-14 20:24:00,SystemResetWarning,0830.1,4.99,000.00,029.4,028.7,000.0,037.7,031.2,030.8,0000.0,0014.80,0007.27,0005.90
2024-06-14 20:25:00,SystemResetWarning,0830.2,5.00,000.00,029.5,028.9,000.0,037.7,031.3,032.5,0000.5,0014.67,0007.25,0005.88
2024-06-14 20:26:00,SystemResetWarning,0830.2,5.00,000.00,029.5,029.0,000.0,037.7,031.3,029.4,0001.8,0016.51,0007.26,0005.90
2024-06-14 20:27:00,SystemResetWarning,0830.2,5.00,000.00,029.6,029.1,000.0,037.7,031.4,029.6,0001.1,0016.82,0007.21,0005.87
2024-06-14 20:28:00,SystemResetWarning,0830.2,5.00,000.00,029.6,029.2,000.0,037.8,031.5,027.8,0002.0,0016.14,0007.13,0005.82
2024-06-14 20:29:00,SystemResetWarning,0830.2,5.00,000.00,029.7,029.2,000.0,037.8,031.5,027.6,0000.6,0015.64,0007.01,0005.75
2024-06-14 20:30:00,SystemResetWarning,0830.2,4.99,000.00,029.7,029.3,000.0,037.8,031.6,027.3,0000.3,0015.72,0006.92,0005.68
2024-06-14 20:31:00,SystemResetWarning,0830.3,4.99,000.00,029.8,029.4,000.0,037.9,031.7,026.8,0002.0,0016.12,0006.81,0005.61
2024-06-14 20:32:00,SystemResetWarning,0830.3,4.99,000.00,029.8,029.2,000.0,037.9,031.6,026.8,0000.0,0016.01,0006.68,0005.54
2024-06-14 20:33:00,SystemResetWarning,0830.2,5.01,000.00,029.6,027.2,000.0,038.0,030.6,026.1,0000.0,0015.93,0006.61,0005.47
2024-06-14 20:34:00,SystemResetWarning,0830.3,5.01,000.00,029.3,026.3,000.0,038.0,030.1,026.6,0000.0,0015.64,0006.48,0005.39
2024-06-14 20:35:00,SystemResetWarning,0830.2,5.01,000.00,029.1,026.6,000.0,037.9,030.1,026.8,0000.0,0015.45,0006.40,0005.30
2024-06-14 20:36:00,SystemResetWarning,0830.3,4.99,000.00,029.1,027.0,000.0,037.8,030.4,026.7,0000.0,0015.05,0006.17,0005.13
2024-06-14 20:37:00,SystemResetWarning,0830.2,5.00,000.00,029.1,027.4,000.0,037.7,030.6,026.6,0000.0,0012.55,0005.91,0004.94
2024-06-14 20:38:00,SystemResetWarning,0830.2,5.00,000.00,029.2,027.7,000.0,037.7,030.8,026.9,0000.0,0011.08,0005.68,0004.78
2024-06-14 20:39:00,SystemResetWarning,0830.3,5.00,000.00,029.2,028.0,000.0,037.7,030.9,026.4,0000.0,0010.72,0005.50,0004.65
2024-06-14 20:40:00,SystemResetWarning,0830.3,4.99,000.00,029.3,028.3,000.0,037.7,031.0,026.3,0000.0,0010.53,0005.37,0004.56
2024-06-14 20:41:00,SystemResetWarning,0830.3,5.00,000.00,029.4,028.5,000.0,037.7,031.1,026.6,0000.0,0009.98,0005.25,0004.49
2024-06-14 20:42:00,SystemResetWarning,0830.3,4.99,000.00,029.4,028.6,000.0,037.7,031.2,026.6,0000.0,0009.66,0005.21,0004.43
2024-06-14 20:43:00,SystemResetWarning,0830.4,5.01,000.00,029.5,028.8,000.0,037.7,031.3,026.2,0000.0,0009.65,0005.15,0004.38
2024-06-14 20:44:00,SystemResetWarning,0830.5,5.00,000.00,029.5,028.9,000.0,037.7,031.3,026.0,0000.0,0009.55,0005.12,0004.34
2024-06-14 20:45:00,SystemResetWarning,0830.4,5.00,000.00,029.6,029.0,000.0,037.7,031.4,025.5,0000.0,0009.67,0005.12,0004.32
2024-06-14 20:46:00,SystemResetWarning,0830.5,5.00,000.00,029.7,029.1,000.0,037.8,031.5,025.7,0000.0,0010.63,0005.11,0004.34
2024-06-14 20:47:00,SystemResetWarning,0830.5,5.00,000.00,029.7,029.2,000.0,037.8,031.5,025.9,0000.0,0011.41,0005.16,0004.39
2024-06-14 20:48:00,SystemResetWarning,0830.5,5.01,000.00,029.8,029.3,000.0,037.8,031.6,025.9,0000.0,0011.41,0005.18,0004.44
2024-06-14 20:49:00,SystemResetWarning,0830.7,4.98,000.00,029.8,029.4,000.0,037.9,031.7,025.3,0000.0,0011.37,0005.24,0004.48
2024-06-14 20:50:00,SystemResetWarning,0830.6,5.00,000.00,029.9,029.5,000.0,037.9,031.7,025.6,0000.0,0011.16,0005.26,0004.52
2024-06-14 20:51:00,SystemResetWarning,0830.6,4.99,000.00,029.9,028.8,000.0,038.0,031.4,026.0,0000.0,0011.35,0005.31,0004.53
2024-06-14 20:52:00,SystemResetWarning,0830.6,5.01,000.00,029.6,026.9,000.0,038.0,030.5,026.2,0000.0,0011.77,0005.37,0004.56
2024-06-14 20:53:00,SystemResetWarning,0830.7,5.01,000.00,029.3,026.6,000.0,038.0,030.3,027.0,0000.0,0012.28,0005.39,0004.59
2024-06-14 20:54:00,SystemResetWarning,0830.7,5.00,000.00,029.3,026.9,000.0,037.9,030.4,030.3,0000.0,0011.83,0005.43,0004.64
2024-06-14 20:55:00,SystemResetWarning,0830.8,5.00,000.00,029.3,027.3,000.0,037.8,030.6,035.8,0000.0,0013.33,0005.65,0004.77
2024-06-14 20:56:00,SystemResetWarning,0830.8,5.00,000.00,029.3,027.7,000.0,037.8,030.8,037.4,0000.0,0015.45,0005.99,0005.03
2024-06-14 20:57:00,SystemResetWarning,0830.8,5.01,000.00,029.3,028.0,000.0,037.8,030.9,037.8,0000.0,0019.21,0006.47,0005.33
2024-06-14 20:58:00,SystemResetWarning,0830.8,5.00,000.00,029.4,028.3,000.0,037.8,031.1,038.2,0000.0,0019.98,0006.87,0005.59
2024-06-14 20:59:00,SystemResetWarning,0830.8,4.99,000.00,029.4,028.5,000.0,037.8,031.2,037.7,0000.0,0021.26,0007.31,0005.88
